Lid_Strength_Index
8 10 12 11 11 11 11 12 13 11 11 11 11 11 11 9 9 9 8 8 7 7 6 6 6 5 4 4 4 4 5 5 5 6 7 7 7 6 6 5 5 4 4 3
9 10 9 10 11 11 12 12 12 12 11 11 11 11 9 9 9 8 8 8 7 7 7 6 6 5 4 4 4 5 5 6 6 6 6 6 6 6 6 6 5 4 4 3
10 11 9 11 12 12 12 12 12 12 11 11 11 11 10 9 9 8 8 7 7 7 7 7 6 5 5 5 5 5 5 6 6 6 6 6 6 6 7 6 5 5 4 3
10 10 11 11 13 12 13 11 11 12 12 13 11 13 11 9 9 9 8 7 7 6 7 7 6 5 5 5 5 5 6 6 6 6 6 7 8 8 8 7 5 4 4 3
12 11 11 12 12 10 11 10 11 11 11 12 12 13 10 10 10 9 8 7 6 6 6 7 6 5 4 5 5 5 6 6 6 6 6 7 7 7 7 6 6 5 4 3
11 10 10 10 10 10 9 10 10 10 11 15 12 12 12 10 9 8 7 7 6 6 6 6 6 4 4 5 5 6 6 7 6 6 6 7 7 8 8 7 7 5 4 3
12 12 10 9 11 10 10 10 15 16 17 17 12 13 10 9 8 8 7 7 6 6 6 6 6 5 5 6 6 6 7 7 7 7 7 7 7 7 8 7 7 6 5 4
13 15 12 10 10 11 10 10 14 18 16 13 12 14 10 8 8 7 7 6 6 6 6 6 6 5 5 6 7 7 7 7 7 7 7 7 7 8 8 7 6 6 5 4
14 15 12 11 10 10 11 12 10 13 13 14 12 10 8 8 9 8 8 7 7 7 6 6 5 5 6 6 7 7 7 7 7 7 7 7 7 8 8 7 6 5 5 4
13 15 12 12 10 10 9 8 13 11 19 19 13 13 11 10 9 9 8 7 7 7 6 6 5 5 6 7 7 7 7 7 7 7 7 7 7 7 7 6 6 5 5 4
11 12 14 12 12 12 11 11 13 14 16 20 17 16 9 9 9 8 7 7 7 7 6 6 5 6 6 7 7 7 7 8 7 7 7 7 8 8 7 7 6 6 5 5
11 12 15 14 11 10 9 11 13 17 18 16 15 17 11 8 7 7 7 7 6 6 6 6 5 6 7 8 7 7 7 8 8 7 8 8 8 8 8 7 7 6 5 5
11 12 16 15 13 11 11 10 11 14 14 16 18 18 11 8 8 7 7 7 7 6 6 5 6 7 8 8 7 8 8 8 8 8 8 8 8 9 8 8 7 6 5 5
9 12 12 13 13 11 12 11 11 11 17 16 15 16 13 10 8 7 7 6 6 6 6 6 7 7 8 8 8 8 8 8 8 8 9 9 9 9 9 8 7 7 6 6
10 13 12 12 12 11 12 11 12 14 12 15 15 13 12 8 7 6 6 6 7 6 6 7 7 7 8 8 8 8 8 8 8 9 9 9 9 9 9 8 8 8 7 7
10 12 11 13 12 11 13 11 11 12 11 11 12 12 9 8 8 6 7 7 7 7 6 6 7 8 8 9 9 9 9 9 9 9 10 10 10 10 9 9 8 8 8 7
11 11 12 14 12 12 13 12 11 11 11 10 12 9 8 9 9 7 6 6 7 6 6 6 7 8 8 8 8 9 9 9 9 9 10 10 10 10 10 9 9 9 9 8
11 11 12 14 13 17 10 10 9 10 10 9 9 8 8 8 7 6 5 5 6 6 6 6 7 7 8 8 8 8 9 9 9 10 11 11 11 11 10 10 10 9 9 9
10 11 13 15 14 11 11 11 11 11 10 8 8 8 8 7 6 6 5 5 5 5 5 6 6 7 8 8 8 9 9 9 10 11 11 11 11 11 11 11 10 10 9 9
11 10 11 13 15 16 11 10 9 9 11 8 7 7 8 7 9 6 5 5 5 5 5 6 7 7 8 8 8 9 9 10 11 11 11 11 11 11 11 11 11 10 10 10
13 13 14 13 14 12 10 9 8 13 9 8 7 6 6 7 5 4 4 5 4 5 6 6 7 8 8 8 8 9 9 10 11 11 11 11 11 11 11 11 11 11 10 10
13 14 15 13 14 16 9 9 11 7 7 7 7 5 6 5 5 5 5 5 5 6 7 7 8 8 8 8 8 9 9 10 10 10 11 11 11 11 11 11 11 11 11 11
13 11 11 10 10 8 8 7 6 7 7 7 6 6 5 5 5 5 5 6 6 6 7 7 8 8 8 8 8 9 9 10 10 10 10 10 11 11 11 11 11 11 11 11
11 10 10 11 8 8 8 7 6 6 6 7 6 5 5 5 5 5 5 6 6 6 7 7 8 8 9 8 8 8 9 9 10 10 10 10 11 10 11 11 11 12 12 12
10 10 10 10 8 8 8 7 6 6 6 7 7 6 5 5 5 5 6 6 6 7 7 7 8 8 9 8 8 8 9 9 10 10 10 10 10 10 11 12 13 12 13 13
10 9 10 9 6 6 7 6 5 6 7 6 7 6 5 4 5 5 5 5 6 7 7 7 7 8 8 8 8 8 9 9 10 10 10 10 10 10 10 11 12 15 15 15